Flag for Germany Weather past 2 weeks in Suhl, Thuringia, Germany

Now
71 °F

Overcast.


Feels Like: 75 °F
Forecast: 62 / 75 °F
Wind: 2 mph from Southeast

Location: Meiningen

Current Time: Jul 28, 2014 at 11:20:37 AM

Latest Report: Jul 28, 2014 at 11:00 AM


Visibility: 28 mi

Pressure: 29.88 "Hg

Humidity: 64%

Dew point: 58 °F

Location of SuhlLocation

Historic Weather in Suhl — Graph

°F

Suhl temperature yesterday

Maximum temperature yesterday: 77 °F (at 5:00 PM)
Minimum temperature yesterday: 59 °F (at 4:00 AM)
Average temperature yesterday: 68 °F

Past Weeks' High & Low Weather Summary

 TemperatureHumidityPressure
High87 °F (Jul 19, 5:00 PM)98% (Jul 14, 6:00 AM)30.19 "Hg (Jul 14, 6:00 AM)
Low55 °F (Jul 15, 6:00 AM)26% (Jul 19, 2:00 PM)29.76 "Hg (Jul 20, 7:00 PM)
Average68 °F69%29.96 "Hg
* Reported Jul 13 10:00 AM — Jul 28 10:00 AM, Suhl, Weather by CustomWeather, © 2014

Note: Actual official high and low records may vary slightly from our data, if they occured in-between our weather recording intervals... More about our weather records

Advertising

Suhl weather history for previous 24 hours

 ConditionsComfort  
Time TempWeatherWind HumidityBarometerVisibility
10:00 AM
Jul 28
68 °FPartly sunny.1 mph72%29.90 "Hg22 mi
9:00 AM66 °FPartly sunny.1 mph83%29.91 "Hg17 mi
8:00 AM61 °FPartly sunny.1 mph94%29.93 "Hg9 mi
7:00 AM57 °FFog.2 mph98%29.95 "Hg1 mi
6:00 AM58 °FFog.1 mph97%29.95 "Hg6 mi
4:00 AM60 °FOvercast.1 mph94%29.95 "Hg6 mi
3:00 AM61 °FOvercast.2 mph93%29.96 "Hg10 mi
2:00 AM61 °FOvercast.1 mph92%29.96 "Hg10 mi
1:00 AM63 °FOvercast.2 mph87%29.96 "Hg17 mi
12:00 AM62 °FOvercast.1 mph87%29.98 "Hg18 mi
10:00 PM
Jul 27
67 °FOvercast.2 mph72%29.96 "Hg28 mi
9:00 PM69 °FPartly sunny.2 mph70%29.95 "Hg19 mi
8:00 PM70 °FPartly sunny.6 mph74%29.94 "Hg16 mi
7:00 PM72 °FOvercast.5 mph67%29.93 "Hg17 mi
6:00 PM76 °FOvercast.5 mph53%29.89 "Hg17 mi
5:00 PM77 °FOvercast.5 mph55%29.90 "Hg16 mi
4:00 PM76 °FPartly sunny.6 mph54%29.91 "Hg12 mi
3:00 PM76 °FPartly sunny.6 mph57%29.90 "Hg19 mi
2:00 PM76 °FPartly sunny.5 mph55%29.92 "Hg19 mi
1:00 PM74 °FScattered clouds.5 mph56%29.94 "Hg19 mi
12:00 PM73 °FScattered clouds.6 mph63%29.94 "Hg16 mi
11:00 AM71 °FScattered clouds.5 mph71%29.95 "Hg17 mi
Weather by CustomWeather, © 2014

See weather overviewHow to use our weather pages